Regional Weather Roundup
Issued by NWS

Home | Current Version | Previous Version | Text Only | Print | Product List | Glossary On
Versions: 1 2 3 4 5 6 7 8 9 10 11 12 13 14 15 16 17 18 19 20 21 22 23 24 25 26 27 28 29 30 31 32 33 34 35 36 37 38 39 40 41 42 43 44 45 46 47 48 49 50
000
ASUS44 KJAN 280310
RWRMS

MISSISSIPPI HOURLY WEATHER ROUNDUP
NATIONAL WEATHER SERVICE JACKSON MS
1000 PM CDT MON JUN 27 2016

NOTE: "FAIR: INDICATES FEW OR NO CLOUDS BELOW 12,000 FEET WITH NO
SIGNIFICANT WEATHER AND/OR OBSTRUCTIONS TO VISIBILITY.

MSZ001>002-007>008-010>013-018>021-025>028-034>036-280400-
NORTHWEST MISSISSIPPI

CITY           SKY/WX    TMP DP  RH WIND       PRES   REMARKS
CLEVELAND      FAIR      76  76  99 CALM      30.03R
GREENWOOD      MOCLDY    75  70  84 S6        30.02R
GREENVILLE     CLOUDY    78  70  76 SE3       30.02S
OXFORD         FAIR      72  72 100 CALM      30.09R
WINONA         LGT RAIN  73  72  98 CALM      30.02F
$$

MSZ003>006-009-014>017-022>024-029>033-037>039-280400-
NORTHEAST MISSISSIPPI

CITY           SKY/WX    TMP DP  RH WIND       PRES   REMARKS
ABERDEEN       FAIR      75  57  53 CALM      30.05R
COLUMBUS AFB   MOCLDY    76  73  89 SE5       30.02S
GOLDN TRIANGLE CLOUDY    77  70  78 S7        30.03R
STARKVILLE     FAIR      75  73  94 E3        30.01F
TUPELO         CLOUDY    75  71  87 CALM      30.04R
$$

MSZ040-058-280400-
CENTRAL MISSISSIPPI

CITY           SKY/WX    TMP DP  RH WIND       PRES   REMARKS
JACKSON INTL   TSTM      73  70  90 CALM      30.06R
JACKSON HAWKNS LGT RAIN  74  69  85 SE7       30.07R
MADISON        FAIR      72  70  94 CALM      30.06R
MERIDIAN KEY   MOCLDY    77  73  87 E5        30.06R
MERIDIAN NAS   MOCLDY    76  72  87 NW5       30.07R
VICKSBURG VKS  MOCLDY    81  79  94 CALM      30.02R
$$

MSZ059>079-280400-
SOUTH MISSISSIPPI

CITY           SKY/WX    TMP DP  RH WIND       PRES   REMARKS
BROOKHAVEN     LGT RAIN N/A N/A N/A SE3       30.06R
COLUMBIA       DRIZZLE   75  73  94 CALM      30.06F
HATTIESBURG    MOCLDY    79  74  84 SE5       30.04F
MCCOMB         CLOUDY    75  72  90 CALM      30.04S
NATCHEZ        NOT AVBL
PINE BELT      CLOUDY    75  72  88 CALM      30.05F
$$

MSZ080>082-280400-
COASTAL MISSISSIPPI

CITY           SKY/WX    TMP DP  RH WIND       PRES   REMARKS
BILOXI         MOCLDY    81  75  83 NE2       30.01R
PASCAGOULA     MOCLDY    78  75  90 CALM      30.03R
GULFPORT       CLOUDY    81  76  84 CALM      30.01R
$$

LAZ007>009-015>016-023>026-280400-
NORTHEAST LOUISIANA

CITY           SKY/WX    TMP DP  RH WIND       PRES   REMARKS
BASTROP        CLOUDY    79  76  91 CALM      30.04R
TALLULAH/VBURG CLOUDY    82  78  88 W3        30.02R HX  91
VIDALIA        FAIR      78  75  92 CALM      30.06R
$$




USA.gov is the U.S. government's official web portal to all federal, state and local government web resources and services.